Lid_Strength_Index
4 5 5 5 5 5 5 5 5 5 6 6 6 6 6 6 6 6 6 5 6 6 6 7 9 9 15 20 20 14 9 11 14 15 16 17 19 21 22 21 19 20 19 17 15 14 14
4 5 5 5 5 5 5 5 6 6 6 6 6 6 7 7 7 7 7 6 7 7 7 7 9 11 18 22 16 15 15 15 15 16 17 17 19 19 21 21 20 19 18 16 14 14 13
5 5 5 5 5 6 6 6 6 6 6 6 6 7 7 7 7 7 7 8 7 7 8 8 10 14 18 20 15 15 15 16 15 15 17 16 17 18 20 20 18 18 18 16 15 14 14
5 5 5 5 5 6 6 6 6 6 6 6 6 7 7 7 7 7 7 8 8 7 8 8 11 17 20 14 15 15 15 15 15 15 15 15 16 17 18 18 19 19 18 19 15 14 14
5 5 6 5 6 6 6 6 6 6 6 6 7 7 7 7 8 8 8 9 9 8 10 11 17 18 21 13 16 16 16 17 16 15 15 14 16 19 18 21 22 20 24 20 17 14 15
5 5 6 6 6 6 6 6 6 6 6 7 7 7 7 7 8 8 8 9 10 12 14 15 16 20 18 19 16 15 14 16 17 17 17 18 19 21 21 21 26 22 23 21 19 16 16
6 6 7 6 6 6 6 6 6 6 7 7 7 8 8 8 8 9 13 16 18 19 18 20 20 20 18 16 15 16 15 17 18 19 23 20 22 24 22 21 18 20 23 21 18 15 17
6 6 7 7 6 6 6 6 6 6 7 7 7 8 8 9 9 10 14 17 18 18 21 18 18 18 17 17 19 17 16 20 21 24 22 22 25 21 19 17 17 18 20 23 18 16 16
6 6 7 7 7 7 7 6 6 6 7 7 7 8 8 9 11 14 16 17 14 15 21 19 18 18 18 17 20 19 18 20 22 23 24 25 22 18 17 18 18 18 21 22 20 17 18
7 7 8 7 7 7 7 7 6 6 7 7 7 8 9 9 15 17 18 15 14 15 23 22 20 19 17 18 21 17 17 19 21 24 23 24 20 19 18 18 18 22 17 17 18 22 29
7 7 8 7 7 7 7 7 6 7 7 7 8 8 10 12 17 18 17 15 15 16 25 20 20 16 18 20 20 19 16 18 23 22 23 24 22 21 19 17 16 20 16 18 19 25 28
7 7 8 8 7 7 7 7 7 7 7 7 8 9 12 15 16 16 15 15 17 21 27 23 21 21 21 20 20 19 19 19 19 21 21 22 19 19 18 15 16 15 19 20 22 25 32
7 7 8 8 7 8 7 7 7 7 7 8 8 9 13 15 18 16 15 18 20 23 22 23 24 22 22 23 22 22 22 26 27 30 28 23 22 19 16 19 16 18 26 31 31 32 30
6 7 8 9 8 8 7 7 7 7 7 8 9 11 13 15 16 16 18 21 24 24 24 21 22 22 25 24 24 23 24 26 25 28 30 30 28 21 16 22 24 21 28 30 33 29 27
6 7 8 9 9 8 8 7 7 7 8 8 11 17 17 16 16 17 20 25 26 25 23 23 23 26 26 24 25 25 27 30 28 29 31 32 26 19 16 15 20 21 27 21 29 28 31
5 6 8 9 9 9 8 8 8 8 8 10 17 18 18 16 16 19 21 23 24 21 21 22 27 26 30 27 27 28 28 28 26 25 26 28 30 21 18 15 17 21 20 27 26 30 33
5 6 7 8 9 9 9 8 8 8 8 10 18 20 18 16 18 20 25 25 22 20 20 23 25 28 31 29 27 29 30 25 25 22 24 29 27 24 20 24 28 23 28 24 24 24 27
5 6 6 8 9 10 9 9 8 8 9 14 19 20 17 17 21 23 25 23 20 21 21 22 23 27 28 27 29 28 27 24 22 23 28 24 30 30 25 23 23 24 26 25 26 26 23
4 6 6 7 9 10 10 9 9 9 10 17 20 20 17 18 23 25 23 22 21 22 22 22 23 22 25 26 30 26 24 20 20 21 27 24 31 33 28 26 21 26 27 22 22 23 26
3 6 6 7 8 10 10 9 9 9 10 17 20 21 20 21 22 25 26 24 23 21 22 21 22 22 24 26 24 27 24 21 20 20 16 20 29 29 31 25 26 24 23 22 24 26 26
3 5 6 7 8 9 10 10 9 9 10 17 20 24 22 24 23 24 25 25 24 24 23 22 24 23 28 30 27 26 24 23 21 19 21 25 29 25 23 21 21 23 25 25 27 26 27
3 4 6 7 8 9 10 10 9 10 12 18 21 22 24 25 23 24 23 25 24 24 25 24 25 24 25 29 27 28 25 25 25 23 23 23 28 25 26 23 28 29 23 23 23 25 24
4 4 5 6 7 8 10 10 10 10 13 19 19 20 20 23 24 25 25 24 24 23 22 22 23 25 25 23 22 22 22 22 22 25 25 27 27 29 30 24 24 29 29 28 25 24 25
4 4 4 6 7 8 10 10 10 10 13 17 18 20 22 25 24 22 22 22 22 22 26 23 23 25 22 21 22 23 24 22 24 23 22 26 27 27 30 27 35 28 25 24 28 26 27
4 4 4 6 7 8 8 9 10 10 11 16 17 20 23 26 22 23 22 22 24 23 23 22 22 22 21 22 26 27 26 26 25 24 24 23 26 30 32 30 27 24 23 25 30 26 28
3 4 4 5 6 7 8 9 9 10 10 15 17 18 21 23 23 21 24 24 27 29 26 22 21 21 22 23 27 32 31 29 28 26 23 23 25 28 29 33 33 29 21 19 24 31 22
3 4 4 4 6 7 8 9 9 10 10 14 16 17 20 24 22 22 25 24 23 26 29 27 26 24 23 27 29 30 30 28 31 30 32 30 32 32 29 31 28 23 21 20 28 28 22
5 5 4 4 6 7 8 8 8 9 10 13 16 16 19 23 21 20 20 23 23 25 27 26 26 26 29 31 30 32 33 33 32 28 32 33 33 32 30 35 32 23 22 26 24 22 22
5 6 6 6 7 8 9 9 9 10 10 13 17 15 16 20 20 18 18 19 19 20 24 26 27 28 25 29 32 31 29 32 35 32 29 32 29 30 27 26 23 22 22 21 21 22 22